{"data":{"norad_id":61696,"intl_designator":"2024-195K","name":"STARLINK-11341 [DTC]","alt_names":[],"object_type":"PAYLOAD","status":"ACTIVE","operator":null,"country":"US","launch_date":"2024-10-30","launch_site_code":"AFWTR","launch_vehicle":null,"mission":null,"orbit_class":"UNKNOWN","rcs_meters":null,"size_class":null,"mass_kg":null,"dimensions":null,"purposes":["comms"],"wikipedia_slug":null,"has_3d_model":false,"image_url":null,"decayed_at":null,"tle_current":{"epoch":"2026-05-24T21:19:11.853696Z","epoch_age_seconds":78581,"freshness":"FRESH","line1":"1 61696U 24195K   26144.88833164  .00000130  00000+0  59288-5 0  9997","line2":"2 61696  53.1589  10.4675 0000900 114.0565 246.0547 15.69710897 91006","mean_motion":15.69710897,"eccentricity":9.0e-5,"inclination_deg":53.1589,"raan_deg":10.4675,"arg_perigee_deg":114.0565,"mean_anomaly_deg":246.0547,"bstar":5.9288e-6,"rev_number":9100,"period_min":91.736637794393,"perigee_km":359.11777604384,"apogee_km":360.33059105688,"semimajor_km":6737.8611835504,"source":"CELESTRAK","updated_at":"2026-05-25T13:38:19.441252Z"}}}